• Em Portugal
  • Lista de países
  • Para 7 dias
  • Temperatura da água
  • Mapas de satélite
  • Mapa do tempo
  • Widgets de tempo
  • user-avatar
    Iniciar Sessão

    Previsão horária em Konstantyna

    Hoje, 15 Agosto, Quarta-feira

    Tempo Temperatura Precipitação Vento Pressão Humidade
    00:00 +25°C° 0 mm 1 m/s 711 mmHg 73%
    01:00 +24°C° 0 mm 1 m/s 711 mmHg 75%
    02:00 +24°C° 0 mm 1 m/s 711 mmHg 78%
    03:00 +23°C° 0 mm 1 m/s 711 mmHg 80%
    04:00 +23°C° 0 mm 1 m/s 711 mmHg 81%
    05:00 +23°C° 0 mm 1 m/s 711 mmHg 82%
    06:00 +23°C° 0 mm 1 m/s 711 mmHg 82%
    07:00 +24°C° 0 mm 2 m/s 711 mmHg 75%
    08:00 +26°C° 0 mm 2 m/s 711 mmHg 68%
    09:00 +27°C° 0 mm 2 m/s 712 mmHg 61%
    10:00 +28°C° 0 mm 3 m/s 712 mmHg 56%
    11:00 +29°C° 0 mm 3 m/s 712 mmHg 52%
    12:00 +30°C° 0 mm 4 m/s 712 mmHg 47%
    13:00 +30°C° 0 mm 4 m/s 712 mmHg 47%
    14:00 +30°C° 0 mm 4 m/s 711 mmHg 46%
    15:00 +30°C° 0 mm 5 m/s 711 mmHg 46%
    16:00 +29°C° 0 mm 5 m/s 711 mmHg 49%
    17:00 +28°C° 0 mm 4 m/s 711 mmHg 52%
    18:00 +27°C° 0 mm 4 m/s 711 mmHg 56%
    19:00 +26°C° 0 mm 3 m/s 711 mmHg 59%
    20:00 +25°C° 0 mm 3 m/s 711 mmHg 63%
    21:00 +24°C° 0 mm 2 m/s 711 mmHg 67%
    22:00 +23°C° 0 mm 1 m/s 711 mmHg 68%
    23:00 +23°C° 0 mm 1 m/s 711 mmHg 70%

    Amanhã, 16 Agosto, Quinta-feira

    Tempo Temperatura Precipitação Vento Pressão Humidade
    00:00 +22°C° 0 mm 1 m/s 711 mmHg 72%
    01:00 +22°C° 0 mm 1 m/s 710 mmHg 72%
    02:00 +22°C° 0 mm 1 m/s 710 mmHg 73%
    03:00 +19°C° 0 mm 0 m/s 710 mmHg 74%
    04:00 +21°C° 0 mm 1 m/s 710 mmHg 72%
    05:00 +22°C° 0 mm 1 m/s 710 mmHg 70%
    06:00 +22°C° 0 mm 1 m/s 710 mmHg 68%
    07:00 +22°C° 0 mm 0 m/s 710 mmHg 59%
    08:00 +23°C° 0 mm 0 m/s 710 mmHg 50%
    09:00 +25°C° 0 mm 0 m/s 711 mmHg 41%
    10:00 +29°C° 0 mm 1 m/s 711 mmHg 36%
    11:00 +30°C° 0 mm 2 m/s 711 mmHg 31%
    12:00 +32°C° 0 mm 2 m/s 711 mmHg 26%
    13:00 +33°C° 0 mm 3 m/s 710 mmHg 26%
    14:00 +34°C° 0 mm 3 m/s 710 mmHg 27%
    15:00 +34°C° 0 mm 4 m/s 710 mmHg 27%
    16:00 +33°C° 0 mm 4 m/s 710 mmHg 33%
    17:00 +30°C° 0 mm 4 m/s 710 mmHg 39%
    18:00 +29°C° 0 mm 4 m/s 709 mmHg 44%
    19:00 +28°C° 0 mm 3 m/s 710 mmHg 49%
    20:00 +27°C° 0 mm 2 m/s 710 mmHg 53%
    21:00 +26°C° 0 mm 1 m/s 710 mmHg 57%
    22:00 +26°C° 0 mm 1 m/s 710 mmHg 59%
    23:00 +26°C° 0 mm 1 m/s 710 mmHg 60%

    Depois de amanhã, 17 Agosto, Sexta-feira

    Tempo Temperatura Precipitação Vento Pressão Humidade
    00:00 +23°C° 0 mm 0 m/s 710 mmHg 61%
    01:00 +23°C° 0 mm 0 m/s 709 mmHg 62%
    02:00 +23°C° 0 mm 0 m/s 709 mmHg 64%
    03:00 +22°C° 0 mm 0 m/s 709 mmHg 65%
    04:00 +22°C° 0 mm 0 m/s 709 mmHg 65%
    05:00 +22°C° 0 mm 0 m/s 709 mmHg 64%
    06:00 +23°C° 0 mm 0 m/s 710 mmHg 64%
    07:00 +26°C° 0 mm 1 m/s 710 mmHg 57%
    08:00 +28°C° 0 mm 1 m/s 710 mmHg 50%
    09:00 +29°C° 0 mm 1 m/s 711 mmHg 43%
    10:00 +30°C° 0 mm 2 m/s 711 mmHg 40%
    11:00 +31°C° 0 mm 2 m/s 711 mmHg 37%
    12:00 +33°C° 0 mm 3 m/s 711 mmHg 33%
    13:00 +33°C° 0 mm 3 m/s 711 mmHg 35%
    14:00 +33°C° 0 mm 4 m/s 711 mmHg 36%
    15:00 +33°C° 0 mm 4 m/s 710 mmHg 37%
    16:00 +30°C° 0,4 mm 4 m/s 710 mmHg 43%
    17:00 +29°C° 0,4 mm 4 m/s 710 mmHg 48%
    18:00 +28°C° 0,4 mm 4 m/s 710 mmHg 53%
    19:00 +27°C° 0,2 mm 3 m/s 711 mmHg 58%
    20:00 +26°C° 0,2 mm 2 m/s 711 mmHg 62%
    21:00 +25°C° 0,2 mm 2 m/s 711 mmHg 67%
    22:00 +25°C° 0 mm 1 m/s 711 mmHg 69%
    23:00 +24°C° 0 mm 1 m/s 711 mmHg 71%

    18 Agosto, Sábado

    Tempo Temperatura Precipitação Vento Pressão Humidade
    00:00 +24°C° 0 mm 1 m/s 711 mmHg 72%
    01:00 +24°C° 0 mm 1 m/s 711 mmHg 73%
    02:00 +24°C° 0 mm 1 m/s 711 mmHg 74%
    03:00 +23°C° 0 mm 1 m/s 711 mmHg 75%
    04:00 +23°C° 0,1 mm 1 m/s 711 mmHg 76%
    05:00 +23°C° 0,1 mm 1 m/s 711 mmHg 76%
    06:00 +23°C° 0,1 mm 1 m/s 711 mmHg 76%
    07:00 +24°C° 0,1 mm 1 m/s 711 mmHg 70%
    08:00 +26°C° 0,1 mm 1 m/s 712 mmHg 64%
    09:00 +27°C° 0,1 mm 2 m/s 712 mmHg 57%
    10:00 +28°C° 0,5 mm 2 m/s 712 mmHg 53%
    11:00 +29°C° 0,5 mm 2 m/s 712 mmHg 49%
    12:00 +30°C° 0,5 mm 2 m/s 712 mmHg 45%
    13:00 +30°C° 0,5 mm 3 m/s 712 mmHg 46%
    14:00 +30°C° 0,5 mm 3 m/s 712 mmHg 47%
    15:00 +30°C° 0,5 mm 4 m/s 712 mmHg 48%
    16:00 +29°C° 0 mm 4 m/s 712 mmHg 52%
    17:00 +28°C° 0 mm 4 m/s 712 mmHg 57%
    18:00 +27°C° 0 mm 4 m/s 711 mmHg 62%
    19:00 +26°C° 0 mm 3 m/s 712 mmHg 66%
    20:00 +25°C° 0 mm 3 m/s 712 mmHg 70%
    21:00 +25°C° 0 mm 2 m/s 713 mmHg 74%
    22:00 +24°C° 0,2 mm 2 m/s 713 mmHg 75%
    23:00 +24°C° 0,2 mm 1 m/s 712 mmHg 76%

    19 Agosto, Domingo

    Tempo Temperatura Precipitação Vento Pressão Humidade
    00:00 +24°C° 0,2 mm 1 m/s 712 mmHg 77%
    01:00 +23°C° 0 mm 1 m/s 712 mmHg 78%
    02:00 +23°C° 0 mm 1 m/s 712 mmHg 79%
    03:00 +21°C° 0 mm 0 m/s 711 mmHg 80%
    04:00 +21°C° 0 mm 0 m/s 711 mmHg 79%
    05:00 +23°C° 0 mm 1 m/s 712 mmHg 78%
    06:00 +23°C° 0 mm 1 m/s 712 mmHg 77%
    07:00 +24°C° 0 mm 1 m/s 712 mmHg 71%
    08:00 +26°C° 0 mm 1 m/s 713 mmHg 64%
    09:00 +27°C° 0 mm 1 m/s 713 mmHg 58%
    10:00 +28°C° 0,1 mm 2 m/s 713 mmHg 52%
    11:00 +30°C° 0,1 mm 2 m/s 713 mmHg 46%
    12:00 +31°C° 0,1 mm 3 m/s 713 mmHg 41%
    13:00 +31°C° 0 mm 3 m/s 713 mmHg 41%
    14:00 +32°C° 0 mm 4 m/s 713 mmHg 42%
    15:00 +32°C° 0 mm 4 m/s 712 mmHg 42%
    16:00 +30°C° 0,1 mm 4 m/s 712 mmHg 46%
    17:00 +29°C° 0,1 mm 4 m/s 712 mmHg 50%
    18:00 +28°C° 0,1 mm 3 m/s 712 mmHg 54%
    19:00 +27°C° 0,1 mm 3 m/s 712 mmHg 58%
    20:00 +26°C° 0,1 mm 2 m/s 712 mmHg 62%
    21:00 +25°C° 0,1 mm 2 m/s 712 mmHg 66%
    22:00 +24°C° 0 mm 1 m/s 712 mmHg 67%
    23:00 +24°C° 0 mm 1 m/s 712 mmHg 69%

    20 Agosto, Segunda-feira

    Tempo Temperatura Precipitação Vento Pressão Humidade
    00:00 +23°C° 0 mm 1 m/s 711 mmHg 71%
    01:00 +23°C° 0 mm 1 m/s 711 mmHg 72%
    02:00 +23°C° 0 mm 1 m/s 711 mmHg 73%
    03:00 +22°C° 0 mm 1 m/s 711 mmHg 74%
    04:00 +22°C° 0 mm 1 m/s 711 mmHg 73%
    05:00 +22°C° 0 mm 1 m/s 711 mmHg 72%
    06:00 +22°C° 0 mm 1 m/s 711 mmHg 71%
    07:00 +24°C° 0 mm 1 m/s 712 mmHg 64%
    08:00 +25°C° 0 mm 2 m/s 712 mmHg 56%
    09:00 +27°C° 0 mm 2 m/s 712 mmHg 48%
    10:00 +28°C° 0 mm 3 m/s 712 mmHg 44%
    11:00 +29°C° 0 mm 3 m/s 712 mmHg 40%
    12:00 +30°C° 0 mm 4 m/s 712 mmHg 36%
    13:00 +30°C° 0 mm 4 m/s 712 mmHg 36%
    14:00 +30°C° 0 mm 4 m/s 712 mmHg 37%
    15:00 +30°C° 0 mm 5 m/s 712 mmHg 38%
    16:00 +29°C° 0 mm 4 m/s 712 mmHg 44%
    17:00 +28°C° 0 mm 4 m/s 712 mmHg 50%
    18:00 +27°C° 0 mm 4 m/s 711 mmHg 57%
    19:00 +26°C° 0 mm 3 m/s 712 mmHg 62%
    20:00 +25°C° 0 mm 2 m/s 712 mmHg 67%
    21:00 +24°C° 0 mm 2 m/s 712 mmHg 73%
    22:00 +23°C° 0 mm 1 m/s 712 mmHg 75%
    23:00 +23°C° 0 mm 1 m/s 711 mmHg 77%
    Mostrar mais